GFSSE_con_mlcape_057.txt.gz
CAPE
429 554 614 670 897 889 1185 802 1066 1037 982 680 421 219 95 59 14 4 3 1 0 0 4 8 7 7 4 57 3 0 0 2 4 4 6 3 3 2 2 27 97 140 246
531 783 744 721 905 912 740 712 924 961 1054 631 358 213 127 51 2 2 4 2 0 0 0 1 7 7 4 3 0 29 19 18 11 0 0 3 3 3 2 0 6 66 71
665 910 902 763 725 603 636 843 860 1001 1067 710 373 188 96 25 0 0 2 0 0 0 0 0 0 4 6 0 36 59 6 0 0 0 0 0 8 7 7 4 4 4 4
856 970 806 646 738 956 1050 1060 1078 958 1001 662 277 181 103 28 0 0 0 0 0 0 0 0 0 0 0 0 1 0 0 0 0 0 0 0 0 5 4 8 5 3 2
996 1032 741 639 657 907 1000 1003 1047 1031 990 678 358 193 108 32 0 0 0 0 0 0 0 0 0 0 0 0 0 0 0 0 0 0 0 0 0 3 5 6 4 3 1
989 1046 806 639 734 779 883 931 980 987 960 752 452 199 125 42 0 0 0 0 0 0 0 0 0 0 0 0 0 0 0 0 0 0 0 0 0 0 1 3 2 3 1
952 1033 914 721 746 797 852 845 786 824 861 706 496 210 130 63 1 0 0 0 0 0 0 0 0 0 0 0 0 0 0 0 0 0 0 0 0 0 0 0 0 1 2
768 969 903 723 607 648 662 655 628 686 715 666 544 321 185 94 21 0 0 0 0 0 0 0 0 0 0 0 0 0 0 0 0 0 0 0 1 3 4 3 4 5 6
727 891 903 792 702 616 583 584 521 385 394 384 427 336 186 65 0 0 0 0 0 0 0 0 0 0 0 0 0 0 0 0 0 0 0 0 0 0 4 3 3 4 4
151 257 628 777 765 683 558 497 434 372 360 309 313 316 107 28 1 0 1 0 0 0 0 0 0 0 0 0 0 0 0 0 0 0 0 0 0 0 2 13 8 5 4
0 0 0 259 550 798 650 572 440 333 273 245 244 173 43 0 8 14 8 0 0 0 0 0 0 0 0 0 0 0 0 0 0 0 0 0 0 0 0 2 2 16 29
0 0 0 0 17 157 643 697 514 379 290 235 167 81 46 6 10 5 4 0 0 0 0 0 0 0 0 0 0 0 0 0 0 0 0 0 3 6 3 1 0 0 0
0 0 0 0 0 0 7 379 618 444 361 271 142 100 67 6 7 0 0 0 0 0 0 0 0 0 0 0 0 0 0 0 0 0 0 0 2 4 4 5 7 5 2
0 0 0 0 0 0 0 5 442 434 348 215 183 119 52 14 3 2 0 0 0 0 0 0 0 0 0 0 0 0 0 0 0 0 0 0 0 3 5 2 0 2 2
0 0 0 0 0 0 0 1 25 108 116 65 111 76 38 20 1 2 0 0 0 0 0 0 0 0 0 0 0 0 0 0 0 0 0 0 0 0 0 0 0 1 4
0 0 0 0 0 0 0 0 0 0 0 0 0 8 12 8 3 0 0 0 0 0 0 0 0 0 0 0 0 0 0 0 0 0 0 0 0 0 0 0 0 0 0
0 0 0 0 0 0 0 0 0 0 0 0 0 0 2 0 0 0 0 0 0 0 0 0 0 0 0 0 0 0 0 0 0 0 0 0 0 0 0 0 0 0 0
0 0 0 0 0 0 0 0 0 0 0 0 0 0 0 0 0 0 0 0 0 0 0 0 0 0 0 0 0 0 0 0 0 0 0 0 0 0 0 0 0 0 0
0 0 0 0 0 0 0 0 0 0 0 0 0 0 0 0 0 0 0 0 0 0 0 0 0 0 0 0 0 0 0 0 0 0 0 0 0 0 0 0 0 0 0
0 0 0 0 0 0 0 0 0 0 0 0 0 0 0 0 0 0 0 0 0 0 0 0 0 0 0 0 0 0 0 0 0 0 0 0 0 0 0 0 0 0 0
0 0 0 0 0 0 0 0 0 0 0 0 0 0 0 0 0 0 0 0 0 0 0 0 0 0 0 0 0 0 0 0 0 0 0 0 0 0 0 0 0 0 0
0 0 0 0 0 0 0 0 0 0 0 0 0 0 0 0 0 0 0 0 0 0 0 0 0 0 0 0 0 0 0 0 0 0 0 0 0 0 0 0 0 0 0
0 0 0 0 0 0 0 0 0 0 0 0 0 0 0 0 0 0 0 0 0 0 0 0 0 0 0 0 0 0 0 0 0 0 0 0 0 0 0 0 0 0 0
0 0 0 0 0 0 0 0 0 0 0 0 0 0 0 0 0 0 0 0 0 0 0 0 0 0 0 0 0 0 0 0 0 0 0 0 0 0 0 0 0 0 0
0 0 0 0 0 0 0 0 0 0 0 0 0 0 0 0 0 0 0 0 0 0 0 0 0 0 0 0 0 0 0 0 0 0 0 0 0 0 0 0 0 0 0
0 0 0 0 0 0 0 0 0 0 0 0 0 0 0 0 0 0 0 0 0 0 0 0 0 0 0 0 0 0 0 0 0 0 0 0 0 0 0 0 0 0 0

GFSSE_con_mlcape_060.txt.gz
CAPE
389 440 376 476 581 705 887 1087 974 847 588 417 181 86 21 4 5 2 0 0 2 6 9 13 16 9 9 25 29 21 20 9 8 7 6 5 5 4 4 2 7 42 141
490 645 499 545 687 714 791 1035 909 816 511 306 145 86 28 0 2 4 1 0 0 0 4 8 5 2 19 72 22 6 2 0 0 0 0 4 1 5 4 2 2 13 45
555 698 651 704 759 757 921 1049 1056 953 566 309 157 95 12 2 6 0 0 0 0 0 0 4 7 4 19 5 1 2 0 0 0 0 0 0 0 4 8 4 4 3 10
740 780 555 360 498 701 914 803 1076 923 571 353 193 105 34 0 0 0 0 0 0 0 0 0 4 0 4 2 0 0 0 0 0 0 0 0 0 3 2 2 1 1 0
831 822 643 528 755 871 992 1014 963 930 554 354 229 113 39 0 0 0 0 0 0 0 0 0 0 1 1 0 0 0 0 0 0 0 0 0 0 2 3 2 1 2 1
829 714 593 722 890 914 952 888 870 826 656 380 251 168 83 23 0 0 0 0 0 0 0 0 0 0 0 0 0 0 0 0 0 0 0 0 0 1 2 1 2 1 0
805 700 568 524 591 682 823 867 907 833 742 472 283 160 70 0 0 0 0 0 0 0 0 0 0 0 0 0 0 0 0 0 0 0 0 0 1 4 5 3 4 4 2
706 779 588 473 449 555 660 739 730 618 628 540 304 161 77 2 0 0 0 0 0 0 0 0 0 0 0 0 0 0 0 0 0 0 0 0 11 12 11 11 10 9 9
759 781 721 541 530 597 634 619 532 513 472 439 365 205 95 0 0 0 0 0 0 0 0 0 0 0 0 0 0 0 0 0 0 0 0 0 6 9 31 34 26 24 6
350 534 695 583 536 503 494 467 392 327 323 367 368 169 43 0 0 0 0 0 0 0 0 0 0 0 0 0 0 0 0 0 0 0 0 0 4 6 7 4 4 9 30
34 110 207 536 621 553 512 404 352 303 244 229 285 108 0 1 5 0 0 0 0 0 0 0 0 0 0 0 0 0 0 0 0 0 0 12 8 9 7 6 4 0 1
83 0 6 1 217 402 645 490 395 308 250 208 151 90 1 3 7 10 0 0 0 0 0 0 0 0 0 0 0 0 0 0 0 0 1 8 16 20 12 7 4 10 5
0 0 0 0 0 32 238 560 479 310 219 150 81 65 23 7 6 8 0 0 0 0 0 0 0 0 0 0 0 0 0 0 0 0 0 0 1 2 9 8 3 2 9
0 0 0 0 0 0 0 19 374 449 303 127 59 73 35 11 10 2 0 0 0 0 0 0 0 0 0 0 0 0 0 0 0 0 0 0 0 2 4 3 5 3 2
0 0 0 0 0 0 0 0 24 247 323 172 124 53 19 3 5 0 0 0 0 0 0 0 0 0 0 0 0 0 0 0 0 0 0 0 0 0 0 0 0 1 6
0 0 0 0 0 0 0 0 0 23 67 35 30 51 28 12 11 0 0 0 0 0 0 0 0 0 0 0 0 0 0 0 0 0 0 0 0 0 0 0 0 0 1
0 0 0 0 0 0 0 0 0 0 0 5 11 16 14 2 5 0 0 0 0 0 0 0 0 0 0 0 0 0 0 0 0 0 0 0 0 0 0 0 0 0 1
0 0 0 0 0 0 0 0 0 0 0 0 0 0 0 0 0 0 0 0 0 0 0 0 0 0 0 0 0 0 0 0 0 0 0 0 0 0 0 0 0 0 0
0 0 0 0 0 0 0 0 0 0 0 0 1 1 0 0 0 0 0 0 0 0 0 0 0 0 0 0 0 0 0 0 0 0 0 0 0 0 0 0 0 0 0
0 0 0 0 0 0 0 0 0 0 0 0 0 0 0 0 0 0 0 0 0 0 0 0 0 0 0 0 0 0 0 0 0 0 0 0 0 0 0 0 0 0 0
0 0 0 0 0 0 0 0 0 0 0 0 0 0 0 0 0 0 0 0 0 0 0 0 0 0 0 0 0 0 0 0 0 0 0 0 0 0 0 0 0 0 0
0 0 0 0 0 0 0 0 0 0 0 0 0 0 0 0 0 0 0 0 0 0 0 0 0 0 0 0 0 0 0 0 0 0 0 0 0 0 0 0 0 0 0
0 0 0 0 0 0 0 0 0 0 0 0 0 0 0 0 0 0 0 0 0 0 0 0 0 0 0 0 0 0 0 0 0 0 0 0 0 0 0 0 0 0 0
0 0 0 0 0 0 0 0 0 0 0 0 0 0 0 0 0 0 0 0 0 0 0 0 0 0 0 0 0 0 0 0 0 0 0 0 0 0 0 0 0 0 0
0 0 0 0 0 0 0 0 0 0 0 0 0 0 0 0 0 0 0 0 0 0 0 0 0 0 0 0 0 0 0 0 0 0 0 0 0 0 0 0 0 0 0
0 0 0 0 0 0 0 0 0 0 0 0 0 0 0 0 0 0 0 0 0 0 0 0 0 0 0 0 0 0 0 0 0 0 0 0 0 0 0 0 0 0 0

GFSSE_con_mlcape_063.txt.gz
CAPE
348 400 492 549 754 663 633 741 572 536 337 174 67 11 5 3 2 1 1 6 3 16 23 19 10 19 55 27 10 6 3 0 0 2 3 4 3 4 0 0 11 65 116
438 425 540 713 827 953 847 862 671 500 275 148 51 19 10 2 1 1 0 0 5 5 8 6 37 33 8 2 4 0 0 0 0 0 0 0 3 5 4 2 1 5 8
504 515 578 717 766 837 790 818 650 425 222 137 37 5 0 0 0 0 0 0 0 7 13 3 35 11 2 3 0 0 0 0 0 0 0 0 3 6 6 6 6 6 4
649 656 720 671 786 860 767 722 725 429 276 162 72 12 0 0 0 0 0 0 0 1 9 11 11 3 4 0 0 0 0 0 0 0 0 0 0 4 3 2 2 1 1
704 660 578 476 455 782 835 856 765 460 293 209 118 40 0 0 0 0 0 0 0 0 1 7 5 3 0 0 0 0 0 0 0 0 0 0 1 5 5 3 2 1 1
759 600 404 455 710 820 832 882 842 553 356 246 134 56 17 0 0 0 0 0 0 0 0 1 1 0 0 0 0 0 0 0 0 0 0 4 9 13 12 10 9 6 5
722 586 554 647 614 851 864 837 813 659 401 303 155 57 0 0 0 0 0 0 0 0 0 0 0 0 0 0 0 0 0 0 0 0 1 9 14 13 13 7 11 9 8
620 557 569 636 604 631 755 777 708 636 471 306 173 74 0 0 0 0 0 0 0 0 0 0 0 0 0 0 0 0 0 0 0 0 0 12 37 39 36 45 27 12 11
731 587 501 446 420 448 516 630 644 574 514 353 205 95 0 0 0 0 0 0 0 0 0 0 0 0 0 0 0 0 0 0 0 0 0 3 3 4 15 11 14 20 38
659 656 544 442 452 498 503 437 459 446 455 404 185 28 0 0 0 0 0 0 0 0 0 0 0 0 0 0 0 0 0 0 0 0 4 6 6 7 6 3 3 2 11
232 410 574 508 461 475 463 407 370 350 338 294 150 1 0 0 0 0 0 0 0 0 0 0 0 0 0 0 0 0 0 0 0 7 21 25 34 37 35 26 20 17 13
158 137 306 372 478 509 466 356 355 279 244 207 178 9 0 1 1 0 0 0 0 0 0 0 0 0 0 0 0 0 0 0 0 0 0 6 18 25 22 26 25 32 39
72 2 0 34 2 338 466 453 370 289 246 210 142 35 6 4 1 0 0 0 0 0 0 0 0 0 0 0 0 0 0 0 0 0 0 1 8 11 14 14 11 10 9
0 0 0 0 0 0 1 252 471 451 224 129 95 67 23 9 7 0 0 0 0 0 0 0 0 0 0 0 0 0 0 0 0 0 0 0 0 1 4 6 6 6 3
0 0 0 0 0 0 0 0 87 255 394 146 59 53 24 20 8 0 0 0 0 0 0 0 0 0 0 0 0 0 0 0 0 0 0 0 0 0 0 1 4 6 8
0 0 0 0 0 0 0 0 0 7 127 201 86 32 32 18 12 0 0 0 0 0 0 0 0 0 0 0 0 0 0 0 0 0 0 0 0 0 0 0 3 6 8
0 0 0 0 0 0 0 0 0 0 4 57 54 39 34 21 11 0 0 1 0 0 0 0 0 0 0 0 0 0 0 0 0 0 0 0 0 0 0 0 0 0 0
0 0 0 0 0 0 0 0 0 0 0 9 19 20 23 16 3 1 0 0 1 0 0 0 0 0 0 0 0 0 0 0 0 0 0 0 0 0 0 0 0 0 0
0 0 0 0 0 0 0 0 0 0 0 0 1 3 7 7 0 0 1 0 0 0 0 0 0 0 0 0 0 0 0 0 0 0 0 0 0 0 0 0 0 0 0
0 0 0 0 0 0 0 0 0 0 0 0 0 1 1 1 0 0 0 0 0 0 0 0 0 0 0 0 0 0 0 0 0 0 0 0 0 0 0 0 0 0 0
0 0 0 0 0 0 0 0 0 0 0 0 0 0 0 0 0 0 0 0 0 0 0 0 0 0 0 0 0 0 0 0 0 0 0 0 0 0 0 0 0 0 0
0 0 0 0 0 0 0 0 0 0 0 0 0 0 0 0 0 0 0 0 0 0 0 0 0 0 0 0 0 0 0 0 0 0 0 0 0 0 0 0 0 0 0
0 0 0 0 0 0 0 0 0 0 0 0 0 0 0 0 0 0 0 0 0 0 0 0 0 0 0 0 0 0 0 0 0 0 0 0 0 0 0 0 0 0 0
0 0 0 0 0 0 0 0 0 0 0 0 0 0 0 0 0 0 0 0 0 0 0 0 0 0 0 0 0 0 0 0 0 0 0 0 0 0 0 0 0 0 0
0 0 0 0 0 0 0 0 0 0 0 0 0 0 0 0 0 0 0 0 0 0 0 0 0 0 0 0 0 0 0 0 0 0 0 0 0 0 0 0 0 0 0
0 0 0 0 0 0 0 0 0 0 0 0 0 0 0 0 0 0 0 0 0 0 0 0 0 0 0 0 0 0 0 0 0 0 0 0 0 0 0 0 0 0 0

GFSSE_con_mlcape_069.txt.gz
CAPE
147 239 75 349 177 238 614 497 298 165 93 55 19 3 2 5 8 3 9 8 24 338 228 22 8 7 4 6 6 5 1 1 0 1 2 4 6 6 2 2 2 7 35
330 304 47 265 292 405 694 460 235 163 78 47 20 3 2 2 4 7 6 8 74 178 57 10 9 6 1 0 2 0 0 0 0 3 1 4 3 1 1 3 1 6 7
402 323 175 421 347 626 590 389 232 154 84 56 9 4 0 1 2 2 5 6 68 61 18 17 5 6 0 0 0 0 0 0 0 0 0 0 5 7 8 6 5 5 2
552 569 397 497 462 594 503 315 236 137 72 20 2 0 0 0 0 3 6 7 98 63 29 22 4 1 0 1 0 0 0 0 0 0 1 3 4 12 9 6 6 4 2
665 640 780 500 716 664 565 421 268 189 86 11 0 0 0 0 0 0 3 7 55 52 18 8 3 1 2 2 0 0 0 0 0 2 5 8 10 8 5 8 10 5 7
689 716 746 620 752 704 606 453 281 223 153 58 5 0 0 0 0 0 0 0 9 8 5 0 0 0 0 0 0 0 0 5 8 14 20 14 9 21 10 18 26 23 17
681 718 703 782 714 757 692 466 269 231 186 103 12 0 0 0 0 0 0 1 6 1 0 0 0 0 0 0 0 0 1 2 4 1 5 19 35 55 57 41 32 30 52
699 812 563 602 687 629 726 490 315 250 190 97 18 0 0 0 0 0 0 0 0 0 0 0 0 0 0 0 0 0 0 0 1 0 2 3 15 22 30 20 18 15 18
697 702 530 476 576 495 551 466 298 229 186 101 20 0 0 0 0 0 0 0 0 0 0 0 0 0 0 0 0 0 0 2 5 9 10 6 15 15 11 15 21 25 18
643 612 641 580 518 551 625 453 405 238 177 77 0 0 0 0 0 0 0 0 0 0 0 0 0 0 0 0 0 0 0 0 6 16 21 40 43 49 32 26 13 6 4
593 593 626 608 527 497 554 574 398 292 161 12 0 0 0 0 0 0 0 0 0 0 0 0 0 0 0 0 0 0 0 2 11 16 18 15 28 28 19 13 12 12 6
766 658 573 577 556 558 572 595 580 524 327 54 0 0 5 3 0 0 0 0 0 0 0 0 0 0 0 0 0 0 2 1 1 0 10 17 20 14 14 8 5 18 7
572 648 653 648 614 648 548 660 610 536 448 277 15 0 10 3 0 0 0 0 0 0 0 0 0 0 0 0 0 0 2 0 0 0 0 14 24 9 6 12 4 6 5
358 465 635 670 658 745 742 725 725 597 492 409 272 87 13 1 0 0 0 0 0 0 0 0 0 0 0 0 0 0 0 0 0 0 0 0 5 9 11 8 6 3 3
257 340 504 618 762 730 785 697 616 623 554 512 434 248 48 1 5 0 0 0 0 0 0 0 0 0 0 0 0 0 0 0 0 0 0 0 4 5 9 7 5 5 6
232 289 361 569 374 202 366 413 466 614 567 515 450 362 162 2 4 2 0 0 0 0 0 0 0 0 0 0 0 0 0 0 0 0 0 0 0 1 5 5 7 5 8
191 185 286 257 283 221 85 172 249 333 430 576 459 443 256 74 1 4 0 0 0 0 0 0 0 0 0 0 0 0 0 0 0 0 0 0 0 0 1 3 5 8 8
65 76 134 15 0 4 0 28 70 182 264 325 424 452 326 191 2 1 0 0 0 0 0 0 0 0 0 0 0 0 0 0 0 0 0 0 0 0 0 0 2 3 4
0 1 21 0 0 0 0 0 0 17 125 187 245 383 432 237 67 0 1 1 0 0 0 0 0 0 0 0 0 0 0 0 0 0 0 0 0 0 0 0 0 0 2
0 0 0 0 0 0 0 0 0 0 1 21 94 91 46 218 34 1 2 2 1 0 0 0 0 0 0 0 0 0 0 0 0 0 0 0 0 0 0 0 0 0 0
0 0 0 0 0 0 0 0 0 0 0 0 1 1 0 0 1 2 3 3 1 0 0 0 0 0 0 0 0 0 0 0 0 0 0 0 0 0 0 0 0 0 0
0 0 0 0 0 0 0 0 0 0 0 0 1 2 2 0 2 2 2 3 2 1 0 0 0 0 0 0 0 0 0 0 0 0 0 0 0 0 0 0 0 0 0
0 0 0 0 0 0 0 0 0 0 0 0 0 0 0 1 0 1 2 4 2 2 0 0 0 0 0 0 0 0 0 0 0 0 0 0 0 0 0 0 0 0 0
0 0 0 0 0 0 0 0 0 0 0 0 0 0 0 0 0 0 1 3 3 1 0 0 0 0 0 0 0 0 0 0 0 0 0 0 0 0 0 0 0 0 0
0 0 0 0 0 0 0 0 0 0 0 0 0 0 0 0 2 0 0 0 1 1 0 0 0 0 0 0 0 0 0 0 0 0 0 0 0 0 0 0 0 0 0
0 0 0 0 0 0 0 0 0 0 0 0 0 0 0 0 3 1 1 1 0 2 1 0 0 0 0 0 0 0 0 0 0 0 0 0 0 0 0 0 0 0 0

GFSSE_con_mlcape_072.txt.gz
CAPE
93 58 188 278 227 343 481 266 161 98 39 11 1 2 0 0 0 5 11 197 124 38 4 7 5 7 9 5 6 7 5 0 1 2 5 5 6 7 5 3 1 3 7
150 190 159 281 176 329 440 301 152 90 66 25 5 2 4 7 0 8 27 131 60 5 7 5 5 2 3 1 0 0 1 6 0 0 0 5 3 0 1 2 1 2 2
381 255 117 359 272 329 378 168 156 115 47 12 4 2 4 4 9 11 6 62 26 11 11 5 2 1 0 0 0 0 0 2 2 1 0 0 7 9 8 5 6 3 1
385 140 240 377 295 380 371 194 138 83 14 1 0 0 1 1 5 7 34 98 53 13 6 5 2 1 0 0 0 0 3 2 1 0 0 1 6 14 11 10 9 8 7
470 426 522 401 517 444 351 265 144 54 0 0 0 0 0 0 2 1 51 62 10 0 6 4 1 0 0 0 0 1 7 0 0 0 0 1 6 14 11 12 14 15 19
609 615 538 457 597 481 443 265 159 63 18 0 0 0 0 0 1 1 4 0 0 3 3 1 1 0 0 0 5 19 10 7 0 7 15 24 38 59 42 63 45 33 24
613 830 603 616 627 606 536 316 192 151 94 19 0 0 0 0 0 1 5 0 0 1 0 0 0 0 0 0 0 1 0 0 4 0 0 10 25 37 35 28 32 23 22
693 789 636 562 576 569 464 313 255 181 117 49 0 0 0 0 0 0 2 0 0 0 0 0 0 0 0 0 0 0 0 0 0 0 0 0 6 21 23 17 17 19 16
722 729 642 626 544 530 446 290 294 163 100 35 0 0 0 0 0 0 0 0 0 0 0 0 0 0 0 0 0 0 0 0 0 0 0 0 9 39 33 25 14 22 23
593 571 442 478 617 543 488 263 216 151 80 7 0 0 0 0 0 0 0 0 0 0 0 1 0 0 0 0 0 0 0 0 0 2 14 26 24 23 17 24 13 4 1
491 498 515 533 557 590 518 333 215 166 55 0 0 0 0 0 0 0 0 0 0 0 0 0 0 0 0 0 0 0 2 0 0 0 6 24 14 20 21 16 4 8 6
392 499 548 510 473 487 576 380 343 206 48 0 0 0 0 0 0 0 0 0 0 0 0 0 0 0 0 0 0 0 0 0 0 0 3 4 14 28 20 6 12 8 5
304 503 541 531 485 452 537 475 458 317 132 0 0 0 0 0 0 0 0 0 0 0 0 0 0 0 0 0 0 0 0 0 0 0 6 18 28 17 3 7 13 10 8
503 495 501 550 473 504 531 534 464 473 307 113 0 0 0 0 0 0 0 0 0 0 0 0 0 0 0 0 0 0 0 0 0 0 0 14 12 4 11 12 10 11 6
362 563 436 527 466 550 561 583 531 516 349 234 66 0 0 0 0 0 0 0 0 0 0 0 0 0 0 0 0 0 0 0 0 0 0 0 1 5 8 12 10 10 7
210 331 530 419 489 520 622 588 559 571 488 366 277 98 6 0 0 0 0 0 0 0 0 0 0 0 0 0 0 0 0 0 0 0 0 0 0 3 9 7 8 8 8
123 263 398 454 407 447 555 605 597 437 572 426 394 274 66 0 0 0 0 0 0 0 0 0 0 0 0 0 0 0 0 0 0 0 0 0 0 0 3 4 6 7 11
13 218 321 389 458 422 254 266 312 294 295 486 419 286 170 13 0 0 0 0 0 0 0 0 0 0 0 0 0 0 0 0 0 0 0 0 0 0 0 2 2 5 6
0 104 209 249 317 313 230 79 136 145 187 236 358 376 279 113 0 0 0 0 0 0 0 0 0 0 0 0 0 0 0 0 0 0 0 0 0 0 0 0 0 0 3
0 5 84 131 52 12 4 0 0 2 11 81 117 209 353 202 10 0 0 0 0 0 0 0 0 0 0 0 0 0 0 0 0 0 0 0 0 0 0 0 0 0 0
0 0 0 23 0 0 0 0 0 0 0 0 1 3 60 177 54 0 0 0 0 0 0 0 0 0 0 0 0 0 0 0 0 0 0 0 0 0 0 0 0 0 0
0 0 0 0 0 0 0 0 0 0 0 0 0 0 0 0 2 1 0 2 1 0 0 0 0 0 0 0 0 0 0 0 0 0 0 0 0 0 0 0 0 0 0
0 0 0 0 0 0 0 0 0 0 0 0 0 0 0 0 0 0 1 3 2 0 0 0 0 0 0 0 0 0 0 0 0 0 0 0 0 0 0 0 0 0 0
0 0 0 0 0 0 0 0 0 0 0 0 0 0 0 0 0 0 1 2 3 2 0 0 0 0 0 0 0 0 0 0 0 0 0 0 0 0 0 0 0 0 0
0 0 0 0 0 0 0 0 0 0 0 0 0 0 0 0 0 0 0 2 2 2 0 0 0 0 0 0 0 0 0 0 0 0 0 0 0 0 0 0 0 0 0
0 0 0 0 0 0 0 0 0 0 0 0 0 0 0 0 0 0 0 2 3 3 2 0 0 0 0 0 0 0 0 0 0 0 0 0 0 0 0 0 0 0 0

GFSSE_con_mlcape_075.txt.gz
CAPE
9 108 141 349 425 583 277 153 66 5 4 3 5 7 0 6 75 150 114 22 1 7 6 6 8 7 13 10 8 6 0 1 4 4 7 8 9 10 7 4 5 3 18
10 148 237 288 494 703 263 86 68 18 12 2 2 3 0 13 39 135 49 3 7 5 5 3 3 6 2 0 6 9 0 0 0 1 3 4 5 6 7 7 2 4 3
52 127 208 246 483 486 215 70 52 33 8 2 2 1 10 25 13 140 35 2 2 2 3 2 0 0 0 7 10 15 11 5 0 0 0 0 6 11 3 6 4 1 0
193 60 295 297 495 396 162 62 52 41 5 0 0 0 1 5 6 182 49 0 0 2 3 1 0 0 0 6 10 7 0 0 0 0 0 1 5 9 13 9 12 7 6
181 54 253 312 465 352 149 67 11 0 0 0 0 0 1 4 49 144 6 0 0 2 1 0 2 0 0 1 10 0 0 0 0 0 0 14 19 16 23 31 33 33 31
152 195 289 351 498 425 221 105 0 0 0 0 0 0 0 6 10 9 0 0 2 1 0 0 2 0 0 12 13 3 0 0 0 8 14 19 30 52 25 24 19 20 21
451 445 368 478 552 460 255 180 88 39 2 0 0 0 0 1 5 3 0 0 1 1 0 0 1 0 0 2 6 2 0 0 0 1 4 2 10 25 26 26 23 17 19
571 619 495 468 528 490 314 191 140 74 17 0 0 0 0 0 1 2 0 0 0 1 0 0 0 0 0 0 0 0 0 0 0 0 0 0 10 15 25 24 23 29 26
718 670 546 466 484 462 316 207 158 93 27 0 0 0 0 0 0 0 0 0 0 1 1 0 0 0 0 0 0 0 0 0 0 0 0 8 27 30 29 32 17 12 4
596 588 451 447 465 414 281 241 156 75 23 0 0 0 0 0 0 0 0 0 0 1 1 1 0 0 0 0 0 0 0 0 0 2 12 17 16 20 7 5 2 2 5
504 496 418 399 475 468 329 231 147 58 4 0 0 0 0 0 0 0 0 0 0 1 1 0 0 0 0 0 0 0 0 0 0 3 12 16 25 20 9 5 10 11 10
384 353 354 329 420 461 447 202 166 60 0 0 0 0 0 0 0 0 0 0 0 0 0 0 0 0 0 0 0 0 0 0 0 0 6 18 25 11 5 9 9 10 9
309 341 394 429 455 420 429 289 212 93 0 0 0 0 0 0 0 0 0 0 0 0 0 0 0 0 0 0 0 0 0 0 0 0 17 27 21 20 7 10 6 8 9
326 295 368 415 383 444 457 365 269 177 21 0 0 0 0 0 0 0 0 0 0 0 0 0 0 0 0 0 0 0 0 0 0 0 2 21 17 3 8 3 6 10 8
321 278 344 328 393 406 443 444 361 247 109 0 0 0 0 0 0 0 0 0 0 0 0 0 0 0 0 0 0 0 0 0 0 0 0 2 4 3 3 5 10 4 8
259 239 351 331 290 328 343 467 324 316 227 65 0 0 0 0 0 0 0 0 0 0 0 0 0 0 0 0 0 0 0 0 0 0 0 0 1 8 8 2 13 8 8
129 309 388 347 317 305 376 334 340 335 317 194 51 0 0 0 0 0 0 0 0 0 0 0 0 0 0 0 0 0 0 0 0 0 0 0 0 0 6 9 7 7 7
0 61 351 349 310 303 290 333 349 387 353 291 165 59 0 0 0 0 0 0 0 0 0 0 0 0 0 0 0 0 0 0 0 0 0 0 0 0 0 3 5 6 5
0 0 121 323 296 276 199 215 339 400 330 290 212 154 18 0 0 0 0 0 0 0 0 0 0 0 0 0 0 0 0 0 0 0 0 0 0 0 0 0 0 1 3
0 0 36 198 313 261 168 196 244 157 179 113 253 164 78 0 0 0 0 0 0 0 0 0 0 0 0 0 0 0 0 0 0 0 0 0 0 0 0 0 0 0 0
0 0 0 68 154 232 182 180 190 152 33 22 31 89 106 31 0 0 0 0 0 0 0 0 0 0 0 0 0 0 0 0 0 0 0 0 0 0 0 0 0 0 0
0 0 0 10 61 105 148 113 43 9 0 23 0 0 27 79 4 2 1 1 0 0 0 0 0 0 0 0 0 0 0 0 0 0 0 0 0 0 0 0 0 0 0
0 0 0 0 4 27 11 0 0 0 0 0 0 0 0 2 10 1 1 2 1 0 0 0 0 0 0 0 0 0 0 0 0 0 0 0 0 0 0 0 0 0 0
0 0 0 0 0 0 0 0 0 0 0 0 0 0 0 0 0 1 1 2 1 2 0 0 0 0 0 0 0 0 0 0 0 0 0 0 0 0 0 0 0 0 0
0 0 0 0 0 0 0 0 0 0 0 0 0 0 0 0 0 0 0 2 3 4 1 0 0 0 0 0 0 0 0 0 0 0 0 0 0 0 0 0 0 0 0
0 0 0 0 0 0 0 0 0 0 0 0 0 0 0 0 0 1 0 1 2 3 3 0 0 0 0 0 0 0 0 0 0 0 0 0 0 0 0 0 0 0 0